{"data":{"norad_id":68631,"intl_designator":"2026-074E","name":"STP-S29A OBJECT E","alt_names":[],"object_type":"PAYLOAD","status":"ACTIVE","operator":null,"country":"US","launch_date":"2026-04-07","launch_site_code":"AFWTR","launch_vehicle":null,"mission":null,"orbit_class":"UNKNOWN","rcs_meters":null,"size_class":null,"mass_kg":null,"dimensions":null,"purposes":[],"wikipedia_slug":null,"has_3d_model":false,"image_url":null,"decayed_at":null,"tle_current":{"epoch":"2026-09-20T04:12:22.099392Z","epoch_age_seconds":91335,"freshness":"FRESH","line1":"1 68631U 26074E   26263.17525578  .00002847  00000+0  12203-3 0  9993","line2":"2 68631  60.0199 173.4354 0036474  91.2939 269.2321 15.25215877 25279","mean_motion":15.25215877,"eccentricity":0.0036474,"inclination_deg":60.0199,"raan_deg":173.4354,"arg_perigee_deg":91.2939,"mean_anomaly_deg":269.2321,"bstar":0.00012203,"rev_number":2527,"period_min":94.412864546912,"perigee_km":465.08592953439,"apogee_km":515.18861670193,"semimajor_km":6868.2742731182,"source":"CELESTRAK","updated_at":"2026-09-20T09:00:24.365441Z"}}}